FW3322 Weather Reports


Display with metric or nautical units.
time (UTC)temp
F
wind
direction
speed
MPH
gust
MPH
rain 1hr
in
rain 24hr
in
rain mn
in
humidity
%
barometer
mb
20260509234538 82 143 2.0 6.0 0.00 0.00 0.00 52 1009.4
20260509233037 82 164 2.0 7.0 0.00 0.00 0.00 51 1009.5
20260509231540 83 159 5.0 8.0 0.00 0.00 0.00 50 1009.5
20260509230036 85 146 2.0 7.0 0.00 0.00 0.00 48 1009.5
20260509224534 85 155 1.0 6.0 0.00 0.00 0.00 47 1009.4
20260509223034 85 223 1.0 6.0 0.00 0.00 0.00 45 1009.5
20260509221534 85 230 2.0 7.0 0.00 0.00 0.00 45 1009.4
20260509220034 85 159 1.0 7.0 0.00 0.00 0.00 43 1009.6
20260509214530 85 137 3.0 6.0 0.00 0.00 0.00 45 1009.6
20260509213034 85 241 3.0 9.0 0.00 0.00 0.00 43 1009.7
20260509211529 84 278 3.0 9.0 0.00 0.00 0.00 43 1009.8
20260509210027 85 277 2.0 6.0 0.00 0.00 0.00 45 1010.0
20260509204524 84 147 2.0 7.0 0.00 0.00 0.00 46 1010.2
20260509203025 84 229 2.0 8.0 0.00 0.00 0.00 45 1010.3
20260509201520 85 281 1.0 7.0 0.00 0.00 0.00 44 1010.4
20260509200019 84 197 3.0 11.0 0.00 0.00 0.00 46 1010.7
20260509194518 85 270 3.0 6.0 0.00 0.00 0.00 47 1010.7
20260509193025 83 277 3.0 8.0 0.00 0.00 0.00 46 1010.9
20260509191614 83 212 2.0 11.0 0.00 0.00 0.00 46 1010.9
20260509190015 82 254 4.0 10.0 0.00 0.00 0.00 47 1010.8
20260509184528 83 202 3.0 8.0 0.00 0.00 0.00 49 1010.9
20260509183010 83 269 4.0 9.0 0.00 0.00 0.00 46 1011.1
20260509181506 82 355 2.0 9.0 0.00 0.00 0.00 45 1011.2
20260509180004 82 286 2.0 7.0 0.00 0.00 0.00 47 1011.2
20260509174502 82 285 4.0 9.0 0.00 0.00 0.00 47 1011.4
20260509173101 81 301 2.0 6.0 0.00 0.00 0.00 51 1011.6
20260509171559 80 69 3.0 9.0 0.00 0.00 0.00 51 1011.7
20260509170059 79 211 3.0 10.0 0.00 0.00 0.00 51 1011.6
20260509164551 78 210 4.0 9.0 0.00 0.00 0.00 52 1011.7
20260509163048 77 290 4.0 8.0 0.00 0.00 0.00 55 1011.7
20260509161549 76 324 4.0 8.0 0.00 0.00 0.00 57 1011.8
20260509160042 75 293 2.0 9.0 0.00 0.00 0.00 61 1011.8
20260509154539 75 280 4.0 8.0 0.00 0.00 0.00 62 1011.8
20260509153051 74 225 0.0 7.0 0.00 0.00 0.00 64 1011.7
20260509151535 73 303 0.0 5.0 0.00 0.00 0.00 66 1011.8
20260509150031 71 277 0.0 5.0 0.00 0.00 0.00 73 1011.8
20260509144531 69 188 0.0 1.0 0.00 0.00 0.00 79 1011.8
20260509143024 68 271 0.0 4.0 0.00 0.00 0.00 84 1011.8
20260509141521 66 166 0.0 1.0 0.00 0.00 0.00 90 1011.9
20260509140016 63 130 0.0 1.0 0.00 0.00 0.00 93 1011.8
20260509134512 61 148 0.0 2.0 0.00 0.00 0.00 96 1011.8
20260509133008 60 147 0.0 2.0 0.00 0.00 0.00 98 1011.7
20260509131504 58 149 0.0 1.0 0.00 0.00 0.00 99 1011.5
20260509130108 57 223 0.0 1.0 0.00 0.00 0.00 99 1011.5
20260509124559 56 254 0.0 1.0 0.00 0.00 0.00 99 1011.6
20260509123055 55 227 0.0 2.0 0.00 0.00 0.00 99 1011.4
20260509121609 0 0.0 0.0 0.00 0.00 0.00 1011.3
20260509120047 0 0.0 0.0 0.00 0.00 0.00 1011.2
20260509114553 55 142 0.0 1.0 0.00 0.00 0.00 100 1011.0
20260509113053 54 159 0.0 1.0 0.00 0.00 0.00 99 1010.8
20260509111543 53 136 0.0 1.0 0.00 0.00 0.00 99 1010.9
20260509110042 53 142 0.0 2.0 0.00 0.00 0.00 99 1010.8
20260509104543 53 136 0.0 2.0 0.00 0.00 0.00 98 1010.7
20260509103050 53 132 0.0 0.0 0.00 0.00 0.00 98 1010.6
20260509101558 53 132 0.0 0.0 0.00 0.00 0.00 98 1010.6
20260509100040 53 140 0.0 0.0 0.00 0.00 0.00 98 1010.6
20260509094542 53 139 0.0 2.0 0.00 0.00 0.00 98 1010.9
20260509093037 50 207 0.0 0.0 0.00 0.00 0.00 97 1011.0
20260509091537 50 207 0.0 0.0 0.00 0.00 0.00 97 1010.9
20260509090040 50 207 0.0 0.0 0.00 0.00 0.00 97 1010.9
20260509084534 50 207 0.0 0.0 0.00 0.00 0.00 97 1010.8
20260509083049 51 207 0.0 0.0 0.00 0.00 0.00 97 1010.7
20260509081532 51 207 0.0 0.0 0.00 0.00 0.00 97 1010.7
20260509080031 51 207 0.0 0.0 0.00 0.00 0.00 97 1010.6
20260509074529 51 207 0.0 0.0 0.00 0.00 0.00 97 1010.7
20260509073031 51 207 0.0 0.0 0.00 0.00 0.00 97 1010.8
20260509071534 51 207 0.0 0.0 0.00 0.00 0.00 97 1010.8
20260509070024 52 207 0.0 0.0 0.00 0.00 0.00 97 1010.9
20260509064525 52 207 0.0 0.0 0.00 0.00 0.00 97 1010.9
20260509063023 52 207 0.0 0.0 0.00 0.00 0.00 96 1010.8
20260509061522 53 207 0.0 0.0 0.00 0.00 0.00 96 1010.9
20260509060016 53 207 0.0 0.0 0.00 0.00 0.00 96 1011.0
20260509054514 53 207 0.0 0.0 0.00 0.00 0.00 96 1011.1
20260509053016 54 207 0.0 0.0 0.00 0.00 0.00 96 1011.0
20260509051511 54 207 0.0 0.0 0.00 0.00 0.00 96 1011.2
20260509050014 55 207 0.0 0.0 0.00 0.00 0.00 95 1011.1
20260509044507 55 207 0.0 0.0 0.00 0.00 0.00 95 1011.3
20260509043006 56 207 0.0 0.0 0.00 0.00 0.00 94 1011.1
20260509041506 57 204 0.0 0.0 0.00 0.00 0.00 93 1011.1
20260509040004 59 327 0.0 0.0 0.00 0.00 0.00 92 1011.1
20260509034504 60 327 0.0 1.0 0.00 0.00 0.00 91 1010.9
20260509033003 61 16 0.0 1.0 0.00 0.00 0.00 90 1010.8
20260509031506 62 17 1.0 2.0 0.00 0.00 0.00 89 1010.7
20260509030002 62 34 0.0 2.0 0.00 0.00 0.00 89 1010.4
20260509024506 62 334 3.0 7.0 0.00 0.00 0.00 89 1010.2
20260509023101 62 215 0.0 0.0 0.00 0.00 0.00 88 1009.7
20260509021602 63 229 0.0 2.0 0.00 0.00 0.00 86 1009.6
20260509020108 64 275 0.0 0.0 0.00 0.00 0.00 84 1009.5
20260509020003 64 274 0.0 0.0 0.00 0.00 0.00 84 1009.5
20260509014559 64 263 0.0 1.0 0.00 0.00 0.00 82 1009.0
20260509013101 65 286 1.0 7.0 0.00 0.00 0.00 81 1008.6
20260509011600 66 279 4.0 10.0 0.00 0.00 0.00 80 1008.4
20260509010057 68 309 4.0 7.0 0.00 0.00 0.00 78 1008.4
20260509004600 68 338 4.0 6.0 0.00 0.00 0.00 77 1008.0
20260509003058 68 281 0.0 5.0 0.00 0.00 0.00 77 1007.9
20260509001555 68 285 1.0 3.0 0.00 0.00 0.00 77 1007.7
20260509000055 68 227 1.0 5.0 0.00 0.00 0.00 75 1007.1